User: anonymous
Location: Albany
(35.0000°S, 118.0000°E)
Time: 09:08:34
(UTC-04:00)
Language:

SJ-6B - Orbit

View from above orbital plane
View from above orbital plane
View from above satellite
View from above satellite

Ground track
Ground track

The orbit data is extracted from the following two-line orbital elements,

1 28415U 04035C   14210.10835106  .00002770  00000-0  20729-3 0  2514
2 28415 097.7972 215.0204 0057228 088.8417 271.9363 15.02298817540044
Epoch (UTC): 29 July 2014 02:36:01
Eccentricity: 0.0057228
inclination: 97.7972°
perigee height: 520 km
apogee height: 599 km
right ascension of ascending node: 215.0204°
argument of perigee: 88.8417°
revolutions per day: 15.02298817
mean anomaly at epoch: 271.9363°
orbit number at epoch: 54004

The dashed part of the orbit path shows where the satellite is in the earth's shadow,  

DLR